This is the latest recevied weather packets stored in our database for station/object NT9M-13. If no packets are shown the sender has not sent any weather packets the latest 10 day(s).
| Time | Temp. | Humidity | Pressure | Rain* | Wind** | Luminosity | Snow |
|---|---|---|---|---|---|---|---|
| 1778262576 | 17.78° C | 68% | 1010.5 hPa | 0 mm | - | - | - |
| 1778260776 | 17.78° C | 65% | 1010.8 hPa | 0 mm | - | - | - |
| 1778260176 | 17.22° C | 64% | 1010.9 hPa | 0 mm | - | - | - |
| 1778257176 | 16.67° C | 70% | 1011.5 hPa | 0 mm | - | - | - |
| 1778256575 | 15.56° C | 72% | 1011.5 hPa | 0 mm | - | - | - |
| 1778255376 | 15.56° C | 75% | 1011.3 hPa | 0 mm | - | - | - |
| 1778254776 | 15° C | 78% | 1011.4 hPa | 0 mm | - | - | - |
| 1778253576 | 14.44° C | 79% | 1011.5 hPa | 0 mm | - | - | - |
| 1778251776 | 13.33° C | 83% | 1011.8 hPa | 0 mm | - | - | - |
| 1778251176 | 12.78° C | 86% | 1011.8 hPa | 0 mm | - | - | - |
| 1778249376 | 12.22° C | 88% | 1012.1 hPa | 0 mm | - | - | - |
| 1778243376 | 10° C | 91% | 1012 hPa | 0 mm | - | - | - |
| 1778242176 | 9.44° C | 92% | 1011.9 hPa | 0 mm | - | - | - |
| 1778233776 | 8.33° C | 92% | 1011.9 hPa | 0 mm | - | - | - |
| 1778224777 | 8.33° C | 92% | 1011.8 hPa | 0 mm | - | - | - |
| 1778217577 | 8.89° C | 90% | 1012.3 hPa | 0 mm | - | - | - |
| 1778205578 | 10.56° C | 85% | 1012.3 hPa | 0.25 mm | - | - | - |
| 1778200177 | 12.22° C | 69% | 1011.8 hPa | 0 mm | - | - | - |
| 1778198377 | 12.22° C | 68% | 1011.7 hPa | 0 mm | - | - | - |
| 1778195378 | 12.78° C | 70% | 1011.9 hPa | 0 mm | - | - | - |
| 1778191177 | 15° C | 54% | 1012.1 hPa | 0 mm | - | - | - |
| 1778188778 | 15° C | 52% | 1012.5 hPa | 0 mm | - | - | - |
| 1778185178 | 17.22° C | 45% | 1012.7 hPa | 0 mm | - | - | - |
| 1778183377 | 16.67° C | 46% | 1013.1 hPa | 0 mm | - | - | - |
| 1778176777 | 17.22° C | 49% | 1014.1 hPa | 0 mm | - | - | - |
* Rain latest hour (hover to see other rain measurements)
** Current wind speed in m/s (hover to see current wind gust speed)